FW8649 Weather Reports


time (UTC)temp
C
wind
direction
speed
KPH
gust
KPH
rain 1hr
cm
rain 24hr
cm
rain mn
cm
humidity
%
barometer
mb
20260906051531 25 74 0.0 3.2 0.00 0.00 0.00 91 1011.3
20260906050028 25 74 0.0 0.0 0.00 0.00 0.00 91 1011.6
20260906044541 25 74 0.0 4.8 0.00 0.00 0.00 90 1011.6
20260906043102 26 74 0.0 3.2 0.00 0.00 0.00 90 1011.6
20260906041525 26 74 0.0 3.2 0.00 0.00 0.00 90 1011.8
20260906040044 26 75 0.0 3.2 0.00 0.00 0.00 90 1011.6
20260906034600 26 75 0.0 8.0 0.00 0.00 0.00 90 1011.5
20260906033031 26 61 3.2 6.4 0.00 0.00 0.00 90 1011.7
20260906031606 26 5 0.0 0.0 0.00 0.00 0.00 90 1011.6
20260906030056 26 5 0.0 0.0 0.00 0.00 0.00 89 1011.4
20260906024533 26 5 0.0 0.0 0.00 0.00 0.00 89 1011.1
20260906023045 26 5 0.0 0.0 0.00 0.00 0.00 88 1010.8
20260906021501 27 5 0.0 0.0 0.00 0.00 0.00 86 1010.8
20260906020014 27 5 0.0 0.0 0.00 0.00 0.00 86 1010.5
20260906014537 27 5 0.0 0.0 0.00 0.00 0.00 85 1010.4
20260906013104 28 5 0.0 0.0 0.00 0.00 0.00 83 1010.5
20260906011525 29 5 0.0 0.0 0.00 0.00 0.00 79 1010.5
20260906010046 30 5 0.0 0.0 0.00 0.00 0.00 78 1010.3
20260906004513 30 5 0.0 0.0 0.00 0.00 0.00 76 1010.1
20260906003041 31 5 0.0 0.0 0.00 0.00 0.00 74 1010.0
20260906001505 32 5 0.0 0.0 0.00 0.00 0.00 70 1010.0
20260906000019 33 5 0.0 0.0 0.00 0.00 0.00 67 1010.1
20260905234551 33 5 0.0 0.0 0.00 0.00 0.00 63 1010.4
20260905233022 34 5 0.0 3.2 0.00 0.00 0.00 60 1010.3
20260905231549 35 5 1.6 4.8 0.00 0.00 0.00 57 1010.2
20260905230057 35 36 3.2 6.4 0.00 0.00 0.00 55 1010.2
20260905224525 35 48 4.8 8.0 0.00 0.00 0.00 54 1010.0
20260905223047 36 74 1.6 9.7 0.00 0.00 0.00 53 1010.2
20260905221527 36 58 0.0 4.8 0.00 0.00 0.00 53 1010.2
20260905220038 36 71 1.6 6.4 0.00 0.00 0.00 53 1010.3
20260905214558 36 85 1.6 8.0 0.00 0.00 0.00 53 1010.4
20260905213027 36 60 3.2 9.7 0.00 0.00 0.00 52 1010.6
20260905211604 36 84 4.8 12.9 0.00 0.00 0.00 54 1010.6
20260905210106 35 96 1.6 6.4 0.00 0.00 0.00 55 1010.6
20260905204531 36 65 6.4 14.5 0.00 0.00 0.00 54 1010.7
20260905203108 36 264 1.6 9.7 0.00 0.00 0.00 54 1010.8
20260905201533 35 325 3.2 12.9 0.00 0.00 0.00 58 1011.3
20260905200039 36 38 3.2 12.9 0.00 0.00 0.00 57 1011.4
20260905194503 36 333 3.2 8.0 0.00 0.00 0.00 56 1011.5
20260905193028 36 343 3.2 9.7 0.00 0.00 0.00 57 1012.0
20260905191550 35 5 3.2 9.7 0.00 0.00 0.00 59 1012.0
20260905190101 36 334 3.2 8.0 0.00 0.00 0.00 57 1012.2
20260905184530 35 65 8.0 17.7 0.00 0.00 0.00 58 1012.3
20260905183057 35 133 4.8 14.5 0.00 0.00 0.00 59 1012.6
20260905181526 35 130 3.2 12.9 0.00 0.00 0.00 59 1012.8
20260905180034 35 54 4.8 12.9 0.00 0.00 0.00 59 1012.8
20260905174603 35 346 3.2 19.3 0.00 0.00 0.00 58 1013.1
20260905173051 35 101 6.4 14.5 0.00 0.00 0.00 58 1013.0
20260905171559 34 40 4.8 12.9 0.00 0.00 0.00 61 1013.3
20260905170007 34 16 4.8 14.5 0.00 0.00 0.00 61 1013.3
20260905164539 33 314 3.2 14.5 0.00 0.00 0.00 63 1013.5
20260905163101 33 26 3.2 9.7 0.00 0.00 0.00 65 1013.6
20260905161528 33 311 1.6 9.7 0.00 0.00 0.00 65 1014.0
20260905160035 32 299 1.6 12.9 0.00 0.00 0.00 65 1014.1
20260905154558 32 44 1.6 9.7 0.00 0.00 0.00 65 1014.1
20260905153018 32 323 3.2 12.9 0.00 0.00 0.00 68 1014.4
20260905151548 31 331 4.8 9.7 0.00 0.00 0.00 69 1014.1
20260905150047 31 348 4.8 12.9 0.00 0.00 0.00 71 1014.3
20260905144503 31 355 0.0 0.0 0.00 0.00 0.00 71 1014.4
20260905104542 21 33 0.0 0.0 0.00 0.00 0.00 96 1013.6
20260905103002 21 33 0.0 0.0 0.00 0.00 0.00 96 1013.5
20260905101609 21 33 0.0 0.0 0.00 0.00 0.00 97 1013.3
20260905100005 21 33 0.0 0.0 0.00 0.00 0.00 97 1013.1
20260905094530 21 33 0.0 0.0 0.00 0.00 0.00 97 1013.0
20260905093101 21 33 0.0 0.0 0.00 0.00 0.00 96 1013.0
20260905091520 21 33 0.0 0.0 0.00 0.00 0.00 96 1012.8
20260905090033 21 33 0.0 0.0 0.00 0.00 0.00 96 1012.7
20260905084550 21 33 0.0 0.0 0.00 0.00 0.00 96 1012.7
20260905083012 21 33 0.0 0.0 0.00 0.00 0.00 95 1012.5
20260905081540 22 33 0.0 0.0 0.00 0.00 0.00 96 1012.7
20260905080044 22 33 0.0 0.0 0.00 0.00 0.00 96 1012.6
20260905074523 22 33 0.0 0.0 0.00 0.00 0.00 96 1012.6
20260905073036 22 33 0.0 0.0 0.00 0.00 0.00 95 1012.8
20260905071600 22 33 0.0 0.0 0.00 0.00 0.00 95 1012.7
20260905070004 22 33 0.0 0.0 0.00 0.00 0.00 95 1012.7
20260905064532 22 33 0.0 0.0 0.00 0.00 0.00 95 1012.9
20260905063059 22 33 0.0 0.0 0.00 0.00 0.00 95 1013.2
20260905061516 22 33 0.0 0.0 0.00 0.00 0.00 95 1013.1
20260905060026 22 33 0.0 0.0 0.00 0.00 0.00 95 1013.3
20260905054552 22 33 0.0 0.0 0.00 0.00 0.00 94 1013.3
20260905053005 22 33 0.0 0.0 0.00 0.00 0.00 94 1013.3